Location: Concrete Bridge Crossing
(40.5373°N, 78.8672°W)
Time: 07:18:46
(UTC+00:00)

N. Korean satellite - Visible Passes

Search period start: 26 November 2020 00:00
Search period end: 06 December 2020 00:00
Orbit: 452 x 504 km, 97.2° (Epoch: 25 November)

Date Brightness Start Highest point End Pass type
(mag) Time Alt. Az. Time Alt. Az. Time Alt. Az.
26 Nov 6.7 11:04:51 10° N 11:08:21 52° WNW 11:11:52 10° SSW visible
27 Nov 6.9 10:38:31 10° NNE 10:42:06 67° E 10:45:43 10° S visible
27 Nov 9.6 22:47:22 10° SW 22:49:51 19° W 22:52:22 10° NW visible
28 Nov 8.6 10:12:34 10° NE 10:15:47 29° E 10:18:59 10° SSE visible
28 Nov 8.1 11:46:32 10° NNW 11:48:52 17° WNW 11:51:13 10° WSW visible
28 Nov 7.9 22:20:13 10° S 22:23:27 42° W 22:26:44 10° NNW visible
29 Nov 9.8 09:47:19 10° ENE 09:49:20 14° E 09:51:22 10° SE visible
29 Nov 7.2 11:19:28 10° N 11:22:45 33° WNW 11:26:04 10° SW visible
30 Nov 6.4 10:52:55 10° N 10:56:33 76° WNW 11:00:12 10° SSW visible
30 Nov 9.9 23:02:51 10° WSW 23:04:23 12° W 23:05:56 10° WNW visible
01 Dec 7.7 10:26:44 10° NNE 10:30:15 46° E 10:33:47 10° S visible
01 Dec 8.9 22:34:57 10° SSW 22:37:54 27° W 22:40:52 10° NW visible
02 Dec 9.2 10:00:59 10° NE 10:03:50 21° E 10:06:43 10° SSE visible
02 Dec 7.8 11:34:11 10° NNW 11:37:05 23° WNW 11:39:59 10° WSW visible
03 Dec 10.2 09:36:50 10° E 09:37:20 10° E 09:37:50 10° E visible
03 Dec 6.8 11:07:23 10° N 11:10:54 47° WNW 11:14:26 10° SSW visible
04 Dec 6.8 10:40:58 10° NNE 10:44:37 74° E 10:48:18 10° S visible
04 Dec 9.6 22:49:55 10° SW 22:52:18 18° W 22:54:44 10° NW visible
05 Dec 8.4 10:14:55 10° NNE 10:18:15 32° E 10:21:36 10° SSE visible
05 Dec 8.2 11:49:03 10° NNW 11:51:18 16° WNW 11:53:34 10° WSW visible
05 Dec 8.1 22:22:37 10° SSW 22:25:50 39° W 22:29:07 10° NNW visible
